Tracking 32579 objects as of 15-Dec-2025
HD Live streaming from Space Station
objects crossing your sky now

SL-19 DEB

Track SL-19 DEB now!
10-day predictions


NORAD ID: 23487
Int'l Code: 1994-085K
Perigee: 1,867.8 km
Apogee: 2,163.1 km
Inclination: 64.9 °
Period: 127.4 minutes
Semi major axis: 8386 km
RCS: 0.0667 m2 (small)
Launch date: December 26, 1994
Source: Commonwealth of Independent States (former USSR) (CIS)
Launch site: TYURATAM MISSILE AND SPACE COMPLEX (TTMTR)

Note: This is SATELLITE DEBRIS
Your satellite tracking list
Your tracking list is empty




NASA's NSSDC Master Catalog

Two Line Element Set (TLE):
1 23487U 94085K   25349.37551303 -.00000011  00000-0  86270-3 0  9999
2 23487  64.9360 216.9197 0176040 219.6316 324.6542 11.30412170278176
Source of the keplerian elements: AFSPC